Regional Weather Roundup
Issued by NWS

Home | Current Version | Previous Version | Graphics & Text | Print | Product List | Glossary On
Versions: 1 2 3 4 5 6 7 8 9 10 11 12 13 14 15 16 17 18 19 20 21 22 23 24 25 26 27 28 29 30 31 32 33 34 35 36 37 38 39 40 41 42 43 44 45 46 47 48 49 50
000
ASUS44 KMEG 182210
RWRTN
TENNESSEE HOURLY STATE WEATHER ROUNDUP
NATIONAL WEATHER SERVICE MEMPHIS TN
400 PM CST THU DEC 18 2014

TNZ002-004-019-021-049-052-054-088>092-182300-
WEST TENNESSEE

CITY           SKY/WX    TMP DP  RH WIND       PRES   REMARKS
MEMPHIS INTL   CLOUDY    46  36  68 CALM      30.18S
NWS MEMPHIS      N/A     45 N/A N/A MISG        N/A
JACKSON        CLOUDY    44  35  70 N3        30.19R
DYERSBURG      CLOUDY    41  27  56 NE5       30.22R
UNION CITY     CLOUDY    37  34  87 NE7       30.20S WCI  32
PARIS          CLOUDY    36  30  80 NE6       30.21R WCI  31
HUNTINGDON     CLOUDY    38  32  79 NE6       30.20R WCI  33
LEXINGTON      CLOUDY    39  34  81 E3        30.17F
SAVANNAH       CLOUDY    45  36  70 CALM      30.18R
$$

TNZ008-025-027-028-033-062-065-066-182300-
NORTH MIDDLE TENNESSEE

CITY           SKY/WX    TMP DP  RH WIND       PRES   REMARKS
NASHVILLE      CLOUDY    38  32  79 N6        30.21F WCI  33
CLARKSVILLE    CLOUDY    36  29  75 NE3       30.22S
SMYRNA         CLOUDY    38  32  79 N6        30.22S WCI  33
COOKEVILLE     MOCLDY    37  34  87 CALM      30.17F
CROSSVILLE     CLOUDY    39  28  64 N7        30.15R WCI  34
$$

TNZ061-075-076-078-094-096-097-182300-
SOUTH MIDDLE TENNESSEE

CITY           SKY/WX    TMP DP  RH WIND       PRES   REMARKS
FAYETTEVILLE   CLOUDY    41  34  75 N5        30.16S
TULLAHOMA      CLOUDY    39  34  81 N5        30.16F
WINCHESTER     CLOUDY    43  36  75 VRB3      30.17R
MCMINNVILLE    CLOUDY    37  34  87 CALM      30.17F
SHELBYVILLE    CLOUDY    39  36  87 NE8       30.19S WCI  34
$$

TNZ017-018-042-046-047-182300-
NORTHEAST TENNESSEE

CITY           SKY/WX    TMP DP  RH WIND       PRES   REMARKS
TRI CITIES     CLOUDY    41  27  57 W3        30.14R
ELIZABETHTON   CLOUDY    39  23  52 W7        30.12R WCI  34
$$

TNZ012-013-036-069-073-074-182300-
CENTRAL EAST TENNESSEE

CITY           SKY/WX    TMP DP  RH WIND       PRES   REMARKS
KNOXVILLE      CLOUDY    43  30  60 CALM      30.17R
OAK RIDGE      CLOUDY    45  29  53 E5        30.16F
GATLINBURG     CLOUDY    43  28  56 NW6       30.16R
MORRISTOWN     CLOUDY    43  30  61 N5        30.16R
$$

TNZ083-085-099-182300-
SOUTHEAST TENNESSEE

CITY           SKY/WX    TMP DP  RH WIND       PRES   REMARKS
CHATTANOOGA    CLOUDY    47  34  60 NE3       30.15F
$$

SKY/WX REPORTED AS FAIR MEANS FEW OR NO CLOUDS BELOW
12 THOUSAND FEET.



USA.gov is the U.S. government's official web portal to all federal, state and local government web resources and services.